Location: ?p Thanh B�nh
(16.5833°N, 107.5333°E)
Time: 09:31:21
(UTC+00:00)

ADEOS - Pass Details

Date: 29 October 2020
Orbit: 793 x 793 km, 98.9° (Epoch: 23 November)

Event Time Altitude Azimuth Distance (km) Brightness Sun altitude
Rises 21:11:11 0° 10° (N) 3,286 6.8 -23.3°
Reaches altitude 10° 21:13:31 10° 9° (N) 2,356 6.0 -22.7°
Maximum altitude 21:18:42 78° 283° (WNW) 811 3.4 -21.5°
Drops below altitude 10° 21:23:54 10° 197° (SSW) 2,352 5.9 -20.3°
Sets 21:26:13 0° 196° (SSW) 3,280 6.7 -19.7°
